Starlink 4622

operational
NORAD ID: 53648 Int'l Des: 2022-105 Owner: SPXS Country: US Constellation: starlink
LEOCIRCULARRETROGRADESSO

About Starlink 4622

Description loading...

Live Position

Loading 3D Globe...

Upcoming Passes

Altitude History

Altitude vs Time

uPlot chart will show altitude changes over time

Two-Line Element Set

1 53648U 22105A 25259.61564196 -.00001119 00000-0 -82612-4 0 9994
2 53648 97.6031 139.7969 0002871 77.6099 282.5447 15.01262417167122
Epoch: Sep 16, 2025 • Age: 23 hours

Current Status

Altitude 565.4 km
Velocity 7.58 km/s
Sub-Earth Point 13.67°N, 117.21°E
Launch Date Aug 31, 2022
Age 3 years
Type internet

Technical Details

Classification Payload
Mass 300.00 kg
Dry Mass 290.00 kg
Total Mass 300.00 kg
Length 0.20 m
Diameter 2.80 m
Span 9.00 m
Shape Box + pan
Manufacturer SPXS
Bus Type Starlink
Phase Status In Orbit
Owner/State SPXS/US

Large Constellations

Loading constellations...